GW2841 Weather Reports


time (UTC)temp
F
wind
direction
speed
knots
gust
knots
rain 1hr
in
rain 24hr
in
rain mn
in
humidity
%
barometer
mb
20260507224550 92 289 0.9 6.1 0.00 0.00 0.00 12 1009.4
20260507224034 92 32 0.9 8.7 0.00 0.00 0.00 8 1009.4
20260507223537 93 17 2.6 8.7 0.00 0.00 0.00 9 1009.4
20260507223039 93 281 3.5 8.7 0.00 0.00 0.00 8 1009.4
20260507222531 93 275 1.7 5.2 0.00 0.00 0.00 9 1009.5
20260507222034 93 210 0.9 6.1 0.00 0.00 0.00 9 1009.5
20260507221539 93 271 0.9 6.1 0.00 0.00 0.00 11 1009.6
20260507221035 93 0 0.0 4.3 0.00 0.00 0.00 10 1009.8
20260507220534 92 0 0.0 7.0 0.00 0.00 0.00 9 1009.8
20260507220045 92 0 0.0 8.7 0.00 0.00 0.00 10 1009.9
20260507215535 92 277 4.3 8.7 0.00 0.00 0.00 10 1009.9
20260507215034 92 0 0.9 7.8 0.00 0.00 0.00 11 1010.0
20260507214545 92 274 0.9 6.1 0.00 0.00 0.00 10 1010.1
20260507214032 92 274 1.7 6.1 0.00 0.00 0.00 10 1010.1
20260507213534 92 271 3.5 7.0 0.00 0.00 0.00 10 1010.1
20260507213059 92 274 2.6 7.8 0.00 0.00 0.00 12 1010.3
20260507212536 92 0 0.0 7.8 0.00 0.00 0.00 11 1010.3
20260507212031 92 137 2.6 6.1 0.00 0.00 0.00 10 1010.4
20260507211541 92 282 0.9 6.1 0.00 0.00 0.00 11 1010.5
20260507211033 92 282 0.9 7.0 0.00 0.00 0.00 12 1010.6
20260507210534 92 286 2.6 7.0 0.00 0.00 0.00 10 1010.7
20260507210045 92 288 0.0 7.0 0.00 0.00 0.00 9 1010.8
20260507205535 92 0 0.9 7.0 0.00 0.00 0.00 11 1010.9
20260507205036 91 281 0.9 3.5 0.00 0.00 0.00 15 1010.9
20260507204557 91 281 0.9 5.2 0.00 0.00 0.00 12 1011.0
20260507204034 90 0 0.0 5.2 0.00 0.00 0.00 10 1011.0
20260507203538 90 282 0.9 5.2 0.00 0.00 0.00 10 1011.1
20260507203045 90 283 0.0 6.1 0.00 0.00 0.00 9 1011.1
20260507202534 90 283 2.6 6.1 0.00 0.00 0.00 9 1011.3
20260507202035 91 283 0.9 4.3 0.00 0.00 0.00 15 1011.3
20260507201545 90 152 0.9 4.3 0.00 0.00 0.00 10 1011.3
20260507201034 90 0 0.0 3.5 0.00 0.00 0.00 10 1011.5
20260507200534 90 0 0.0 3.5 0.00 0.00 0.00 11 1011.5
20260507200044 89 0 0.9 5.2 0.00 0.00 0.00 11 1011.7
20260507195534 89 0 0.0 5.2 0.00 0.00 0.00 12 1011.7
20260507195037 89 32 0.9 4.3 0.00 0.00 0.00 11 1011.8
20260507194550 89 337 0.9 4.3 0.00 0.00 0.00 14 1011.9
20260507194034 89 287 1.7 5.2 0.00 0.00 0.00 12 1012.0
20260507193534 89 13 0.0 5.2 0.00 0.00 0.00 13 1012.0
20260507193039 89 40 1.7 4.3 0.00 0.00 0.00 13 1012.1
20260507192536 89 281 0.9 3.5 0.00 0.00 0.00 11 1012.2
20260507192034 88 0 0.0 3.5 0.00 0.00 0.00 14 1012.3
20260507191546 88 281 0.9 2.6 0.00 0.00 0.00 11 1012.4
20260507191034 88 281 0.0 2.6 0.00 0.00 0.00 14 1012.4
20260507190534 87 69 0.9 5.2 0.00 0.00 0.00 12 1012.5
20260507190044 87 287 0.9 5.2 0.00 0.00 0.00 14 1012.5
20260507185534 88 17 1.7 5.2 0.00 0.00 0.00 13 1012.7
20260507185031 88 339 0.9 1.7 0.00 0.00 0.00 17 1012.7
20260507184544 87 0 0.0 4.3 0.00 0.00 0.00 14 1012.8
20260507184034 86 0 0.0 4.3 0.00 0.00 0.00 14 1012.9
20260507183536 86 74 0.9 7.0 0.00 0.00 0.00 14 1012.9
20260507183056 86 26 1.7 7.0 0.00 0.00 0.00 14 1012.9
20260507182531 86 46 2.6 5.2 0.00 0.00 0.00 13 1013.1
20260507182031 86 0 0.0 1.7 0.00 0.00 0.00 13 1013.1
20260507181549 86 0 0.0 0.9 0.00 0.00 0.00 17 1013.1
20260507181034 86 0 0.0 0.9 0.00 0.00 0.00 14 1013.2
20260507180534 86 0 0.0 3.5 0.00 0.00 0.00 15 1013.2
20260507180052 86 0 0.0 3.5 0.00 0.00 0.00 17 1013.2
20260507175535 86 0 0.9 3.5 0.00 0.00 0.00 18 1013.3
20260507175034 85 0 0.9 5.2 0.00 0.00 0.00 21 1013.3
20260507174546 85 225 0.9 5.2 0.00 0.00 0.00 15 1013.4
20260507174035 84 0 0.0 3.5 0.00 0.00 0.00 17 1013.3
20260507173534 84 0 0.0 0.0 0.00 0.00 0.00 19 1013.5
20260507173052 84 0 0.0 2.6 0.00 0.00 0.00 19 1013.5
20260507172538 84 0 0.0 4.3 0.00 0.00 0.00 20 1013.7
20260507172035 84 0 0.9 4.3 0.00 0.00 0.00 17 1013.7
20260507171544 83 176 0.9 3.5 0.00 0.00 0.00 18 1013.7
20260507171034 83 0 0.0 5.2 0.00 0.00 0.00 22 1013.8
20260507170533 83 0 0.0 5.2 0.00 0.00 0.00 24 1013.9
20260507170044 82 273 0.9 5.2 0.00 0.00 0.00 20 1013.9
20260507165534 82 273 0.0 1.7 0.00 0.00 0.00 23 1014.0
20260507165037 81 273 0.9 3.5 0.00 0.00 0.00 23 1014.0
20260507164548 81 0 0.0 3.5 0.00 0.00 0.00 21 1014.0
20260507164035 80 0 0.9 3.5 0.00 0.00 0.00 22 1014.0
20260507163540 80 0 0.9 2.6 0.00 0.00 0.00 23 1014.0
20260507163038 81 0 0.0 2.6 0.00 0.00 0.00 23 1014.0
20260507162535 80 0 0.0 2.6 0.00 0.00 0.00 24 1014.0
20260507162038 80 196 0.0 4.3 0.00 0.00 0.00 25 1014.0
20260507161546 79 0 0.0 4.3 0.00 0.00 0.00 25 1014.1
20260507161034 79 0 0.0 0.0 0.00 0.00 0.00 25 1014.2
20260507160534 78 0 0.0 0.9 0.00 0.00 0.00 26 1014.2
20260507160054 77 0 0.0 0.9 0.00 0.00 0.00 27 1014.2
20260507155534 77 0 0.0 0.0 0.00 0.00 0.00 27 1014.2
20260507155038 76 0 0.0 0.9 0.00 0.00 0.00 28 1014.2
20260507154549 76 0 0.0 0.9 0.00 0.00 0.00 27 1014.2
20260507154033 75 0 0.0 0.9 0.00 0.00 0.00 28 1014.2
20260507153534 75 0 0.0 3.5 0.00 0.00 0.00 27 1014.3
20260507153051 74 0 0.0 3.5 0.00 0.00 0.00 28 1014.2
20260507152531 74 121 0.9 3.5 0.00 0.00 0.00 27 1014.2
20260507152035 73 0 0.0 3.5 0.00 0.00 0.00 30 1014.3
20260507151548 72 0 0.9 4.3 0.00 0.00 0.00 29 1014.3
20260507151034 71 0 0.9 5.2 0.00 0.00 0.00 29 1014.3
20260507150538 71 0 1.7 5.2 0.00 0.00 0.00 30 1014.3
20260507150049 70 106 0.9 5.2 0.00 0.00 0.00 32 1014.2
20260507145535 70 0 0.9 4.3 0.00 0.00 0.00 33 1014.2
20260507145034 69 128 0.9 5.2 0.00 0.00 0.00 33 1014.2
20260507144550 68 121 2.6 6.1 0.00 0.00 0.00 32 1014.3
20260507144034 67 124 1.7 6.1 0.00 0.00 0.00 33 1014.3
20260507143534 67 128 1.7 5.2 0.00 0.00 0.00 34 1014.4
20260507143047 67 126 2.6 5.2 0.00 0.00 0.00 33 1014.3
20260507142534 66 121 1.7 5.2 0.00 0.00 0.00 34 1014.4
20260507142034 66 283 0.9 5.2 0.00 0.00 0.00 36 1014.4
20260507141547 65 283 1.7 5.2 0.00 0.00 0.00 36 1014.5
20260507141033 65 283 0.0 5.2 0.00 0.00 0.00 36 1014.5
20260507140530 64 283 1.7 5.2 0.00 0.00 0.00 37 1014.4
20260507135533 63 283 0.9 5.2 0.00 0.00 0.00 38 1014.3
20260507135033 63 283 2.6 5.2 0.00 0.00 0.00 38 1014.3
20260507134540 62 0 0.9 3.5 0.00 0.00 0.00 40 1014.2
20260507134030 62 283 1.7 3.5 0.00 0.00 0.00 40 1014.0
20260507133535 61 283 0.9 3.5 0.00 0.00 0.00 42 1013.7
20260507133039 61 283 1.7 3.5 0.00 0.00 0.00 43 1013.5
20260507132530 60 0 0.0 0.0 0.00 0.00 0.00 43 1013.5
20260507132030 60 0 0.0 0.0 0.00 0.00 0.00 44 1013.4
20260507131549 59 0 0.0 1.7 0.00 0.00 0.00 46 1013.3
20260507131031 59 0 0.0 1.7 0.00 0.00 0.00 46 1013.2
20260507130534 58 0 0.0 0.9 0.00 0.00 0.00 46 1013.2
20260507130052 58 0 0.0 2.6 0.00 0.00 0.00 47 1013.2
20260507125534 58 0 0.0 2.6 0.00 0.00 0.00 49 1013.2
20260507125030 58 283 0.9 2.6 0.00 0.00 0.00 51 1013.3
20260507124557 58 0 0.0 0.0 0.00 0.00 0.00 52 1013.2
20260507124030 58 0 0.0 0.0 0.00 0.00 0.00 51 1013.2
20260507123534 58 0 0.0 0.0 0.00 0.00 0.00 50 1013.2
20260507123053 59 0 0.0 0.9 0.00 0.00 0.00 49 1013.2
20260507122533 59 0 0.0 0.9 0.00 0.00 0.00 49 1013.3
20260507122032 59 283 0.0 1.7 0.00 0.00 0.00 49 1013.3
20260507121543 59 0 0.0 3.5 0.00 0.00 0.00 48 1013.3
20260507121030 59 0 0.0 3.5 0.00 0.00 0.00 48 1013.3
20260507120530 59 283 1.7 3.5 0.00 0.00 0.00 49 1013.3
20260507120040 59 283 1.7 3.5 0.00 0.00 0.00 50 1013.2
20260507115531 59 0 0.0 0.0 0.00 0.00 0.00 51 1013.1
20260507115029 59 0 0.0 0.0 0.00 0.00 0.00 52 1013.1
20260507114548 59 0 0.0 0.0 0.00 0.00 0.00 51 1013.2
20260507114031 59 0 0.0 0.0 0.00 0.00 0.00 52 1013.3
20260507113530 59 0 0.0 0.0 0.00 0.00 0.00 53 1013.3
20260507113045 59 0 0.0 0.0 0.00 0.00 0.00 53 1013.2
20260507112530 59 0 0.0 0.0 0.00 0.00 0.00 53 1013.2
20260507112030 59 0 0.0 0.0 0.00 0.00 0.00 54 1013.3
20260507111547 59 0 0.0 0.0 0.00 0.00 0.00 54 1013.2
20260507111029 59 0 0.0 0.0 0.00 0.00 0.00 53 1013.2
20260507110533 59 0 0.0 0.0 0.00 0.00 0.00 53 1013.2
20260507110044 59 0 0.0 0.0 0.00 0.00 0.00 54 1013.2
20260507105532 59 0 0.0 0.0 0.00 0.00 0.00 53 1013.3
20260507105033 60 0 0.0 0.0 0.00 0.00 0.00 53 1013.3
20260507104540 60 0 0.0 0.0 0.00 0.00 0.00 53 1013.2
20260507104030 60 0 0.0 0.0 0.00 0.00 0.00 54 1013.4
20260507103529 60 0 0.0 0.0 0.00 0.00 0.00 54 1013.2
20260507103039 60 0 0.0 0.0 0.00 0.00 0.00 54 1013.3
20260507102529 60 0 0.0 0.0 0.00 0.00 0.00 55 1013.3
20260507102031 60 0 0.0 0.0 0.00 0.00 0.00 54 1013.4
20260507101545 60 0 0.0 0.0 0.00 0.00 0.00 54 1013.4
20260507101036 60 0 0.0 0.0 0.00 0.00 0.00 53 1013.4
20260507100529 60 0 0.0 0.0 0.00 0.00 0.00 52 1013.4
20260507100047 60 0 0.0 0.0 0.00 0.00 0.00 51 1013.5
20260507095532 61 0 0.0 0.0 0.00 0.00 0.00 50 1013.6
20260507095034 60 0 0.0 0.0 0.00 0.00 0.00 50 1013.6
20260507094543 61 0 0.0 0.0 0.00 0.00 0.00 50 1013.7
20260507094032 61 0 0.0 0.0 0.00 0.00 0.00 51 1013.7
20260507093532 61 0 0.0 0.0 0.00 0.00 0.00 48 1013.7
20260507093042 61 0 0.0 0.0 0.00 0.00 0.00 47 1013.8
20260507092534 61 0 0.0 0.0 0.00 0.00 0.00 47 1013.8
20260507092031 61 0 0.0 0.0 0.00 0.00 0.00 48 1013.8
20260507091538 62 0 0.0 0.0 0.00 0.00 0.00 48 1013.8
20260507091033 62 0 0.0 0.0 0.00 0.00 0.00 47 1013.8
20260507090533 62 0 0.0 0.0 0.00 0.00 0.00 46 1013.9
20260507090041 62 0 0.0 0.0 0.00 0.00 0.00 44 1014.0
20260507085531 62 0 0.0 0.0 0.00 0.00 0.00 43 1014.0
20260507085032 62 0 0.0 0.0 0.00 0.00 0.00 44 1014.0
20260507084552 63 0 0.0 0.0 0.00 0.00 0.00 47 1014.0
20260507084036 63 0 0.0 0.0 0.00 0.00 0.00 42 1014.0
20260507083532 63 0 0.0 0.9 0.00 0.00 0.00 43 1014.0
20260507083050 63 0 0.0 0.9 0.00 0.00 0.00 42 1014.1
20260507082534 63 0 0.0 0.9 0.00 0.00 0.00 43 1014.1
20260507082034 63 0 0.0 0.9 0.00 0.00 0.00 44 1014.0
20260507081543 63 0 0.0 0.9 0.00 0.00 0.00 45 1014.0
20260507081034 63 0 0.0 0.9 0.00 0.00 0.00 44 1014.0
20260507080532 63 0 0.0 0.0 0.00 0.00 0.00 44 1014.1
20260507080055 63 0 0.0 0.0 0.00 0.00 0.00 44 1014.2
20260507075532 63 0 0.0 0.0 0.00 0.00 0.00 45 1014.2
20260507075033 63 0 0.0 0.0 0.00 0.00 0.00 44 1014.2
20260507074557 63 0 0.0 0.0 0.00 0.00 0.00 42 1014.2
20260507074031 64 0 0.0 0.0 0.00 0.00 0.00 44 1014.1
20260507073531 64 0 0.0 0.0 0.00 0.00 0.00 44 1014.1
20260507073052 64 0 0.0 0.0 0.00 0.00 0.00 43 1014.1
20260507072532 64 0 0.0 0.0 0.00 0.00 0.00 40 1014.2
20260507072031 64 0 0.0 0.0 0.00 0.00 0.00 41 1014.2
20260507071600 65 0 0.0 0.0 0.00 0.00 0.00 39 1014.3
20260507071033 65 0 0.0 0.0 0.00 0.00 0.00 38 1014.3
20260507070533 65 0 0.0 0.0 0.00 0.00 0.00 38 1014.3
20260507070046 65 0 0.0 0.0 0.00 0.00 0.00 38 1014.4
20260507065533 66 0 0.0 0.0 0.00 0.00 0.00 39 1014.3
20260507065033 66 0 0.0 0.0 0.00 0.00 0.00 38 1014.3
20260507064546 66 0 0.0 0.0 0.00 0.00 0.00 38 1014.3
20260507064032 66 0 0.0 0.0 0.00 0.00 0.00 38 1014.2
20260507063531 66 0 0.0 0.0 0.00 0.00 0.00 40 1014.2
20260507063042 66 0 0.0 0.0 0.00 0.00 0.00 39 1014.2
20260507062532 67 0 0.0 0.0 0.00 0.00 0.00 39 1014.1
20260507062033 67 0 0.0 0.9 0.00 0.00 0.00 39 1014.1
20260507061539 67 0 0.0 0.9 0.00 0.00 0.00 38 1014.1
20260507061033 67 0 0.0 0.9 0.00 0.00 0.00 37 1014.1
20260507060531 67 0 0.0 0.9 0.00 0.00 0.00 38 1014.1
20260507060039 67 0 0.0 0.9 0.00 0.00 0.00 39 1014.2
20260507055532 67 0 0.0 0.0 0.00 0.00 0.00 39 1014.1
20260507055031 67 0 0.0 0.0 0.00 0.00 0.00 36 1014.3
20260507054552 67 0 0.0 0.0 0.00 0.00 0.00 39 1014.2
20260507054031 67 0 0.0 0.0 0.00 0.00 0.00 39 1014.2
20260507053532 67 0 0.0 0.0 0.00 0.00 0.00 37 1014.2
20260507053052 68 0 0.0 0.0 0.00 0.00 0.00 37 1014.2
20260507052534 68 0 0.0 0.0 0.00 0.00 0.00 36 1014.2
20260507052029 68 0 0.0 0.0 0.00 0.00 0.00 35 1014.2
20260507051545 69 0 0.0 0.0 0.00 0.00 0.00 36 1014.2
20260507051028 69 0 0.0 0.0 0.00 0.00 0.00 35 1014.1
20260507050533 69 0 0.0 0.0 0.00 0.00 0.00 35 1014.1
20260507050051 69 0 0.0 0.0 0.00 0.00 0.00 34 1013.9
20260507045532 69 0 0.0 0.0 0.00 0.00 0.00 33 1013.8
20260507045032 70 0 0.0 0.9 0.00 0.00 0.00 32 1013.8
20260507044539 70 0 0.0 0.9 0.00 0.00 0.00 32 1013.8
20260507044034 70 0 0.0 0.0 0.00 0.00 0.00 33 1013.7
20260507043533 70 0 0.0 0.0 0.00 0.00 0.00 32 1013.8
20260507043039 70 0 0.0 0.0 0.00 0.00 0.00 32 1013.8
20260507042532 70 0 0.0 0.0 0.00 0.00 0.00 31 1013.8
20260507042032 71 0 0.0 0.0 0.00 0.00 0.00 28 1013.8
20260507041538 71 0 0.0 0.0 0.00 0.00 0.00 28 1013.7
20260507041031 71 0 0.0 0.0 0.00 0.00 0.00 28 1013.8
20260507040532 72 0 0.0 0.0 0.00 0.00 0.00 28 1013.7
20260507040058 72 0 0.0 0.0 0.00 0.00 0.00 29 1013.7
20260507035529 72 0 0.0 0.0 0.00 0.00 0.00 28 1013.7
20260507035032 73 0 0.0 0.9 0.00 0.00 0.00 26 1013.6
20260507034553 73 0 0.0 0.9 0.00 0.00 0.00 27 1013.5
20260507034033 73 0 0.0 0.0 0.00 0.00 0.00 26 1013.3
20260507033533 74 0 0.0 0.0 0.00 0.00 0.00 25 1013.3
20260507033043 74 0 0.0 0.0 0.00 0.00 0.00 25 1013.2
20260507032535 75 0 0.0 0.9 0.00 0.00 0.00 25 1013.2
20260507032032 75 0 0.0 0.9 0.00 0.00 0.00 24 1013.2
20260507031539 76 0 0.0 0.9 0.00 0.00 0.00 24 1013.3
20260507031033 76 0 0.0 0.9 0.00 0.00 0.00 24 1013.4
20260507030532 76 0 0.0 0.9 0.00 0.00 0.00 23 1013.3
20260507030038 76 0 0.0 1.7 0.00 0.00 0.00 23 1013.3
20260507025532 77 0 0.0 1.7 0.00 0.00 0.00 24 1013.3
20260507025031 77 0 0.0 2.6 0.00 0.00 0.00 23 1013.1
20260507024545 77 0 0.0 2.6 0.00 0.00 0.00 22 1013.1
20260507024031 77 283 0.0 2.6 0.00 0.00 0.00 22 1013.1
20260507023531 77 283 0.0 1.7 0.00 0.00 0.00 22 1013.0
20260507023045 78 0 0.0 2.6 0.00 0.00 0.00 22 1012.9
20260507022532 78 0 0.0 2.6 0.00 0.00 0.00 22 1012.9
20260507022029 78 0 0.9 2.6 0.00 0.00 0.00 22 1012.9
20260507021546 78 283 0.0 0.9 0.00 0.00 0.00 22 1012.9
20260507021033 78 0 0.0 0.9 0.00 0.00 0.00 22 1012.8
20260507020532 79 0 0.0 0.9 0.00 0.00 0.00 22 1012.7
20260507020040 79 0 0.0 0.0 0.00 0.00 0.00 21 1012.7
20260507015531 79 0 0.0 0.0 0.00 0.00 0.00 21 1012.6
20260507015032 79 0 0.0 0.0 0.00 0.00 0.00 20 1012.6
20260507014538 80 0 0.0 0.0 0.00 0.00 0.00 21 1012.7
20260507014033 80 0 0.0 0.0 0.00 0.00 0.00 20 1012.7
20260507013536 80 0 0.0 5.2 0.00 0.00 0.00 20 1012.7
20260507013048 81 0 0.0 5.2 0.00 0.00 0.00 19 1012.6
20260507012531 81 0 0.0 3.5 0.00 0.00 0.00 19 1012.7
20260507012031 81 283 0.9 5.2 0.00 0.00 0.00 19 1012.7
20260507011540 82 283 0.9 5.2 0.00 0.00 0.00 20 1012.8
20260507011031 82 283 0.0 5.2 0.00 0.00 0.00 19 1012.7
20260507010531 81 0 0.0 6.1 0.00 0.00 0.00 19 1012.7
20260507010044 82 288 2.6 6.1 0.00 0.00 0.00 19 1012.7
20260507005533 82 273 1.7 3.5 0.00 0.00 0.00 19 1012.7
20260507005032 82 0 0.0 0.9 0.00 0.00 0.00 20 1012.7
20260507004542 82 0 0.0 5.2 0.00 0.00 0.00 20 1012.7
20260507004033 82 0 0.0 5.2 0.00 0.00 0.00 19 1012.6
20260507003535 83 270 1.7 5.2 0.00 0.00 0.00 19 1012.7
20260507003041 83 270 0.0 2.6 0.00 0.00 0.00 19 1012.6
20260507002533 83 270 0.0 1.7 0.00 0.00 0.00 18 1012.5
20260507002034 83 0 0.0 1.7 0.00 0.00 0.00 19 1012.6
20260507001548 83 0 0.0 2.6 0.00 0.00 0.00 20 1012.6
20260507001031 83 0 0.0 2.6 0.00 0.00 0.00 19 1012.6
20260507000531 83 265 0.0 6.1 0.00 0.00 0.00 19 1012.6
20260507000057 82 0 0.9 6.1 0.00 0.00 0.00 20 1012.7
20260506235532 82 267 0.0 5.2 0.00 0.00 0.00 19 1012.7
20260506235032 82 279 0.9 3.5 0.00 0.00 0.00 19 1012.6
20260506234544 82 0 0.0 6.1 0.00 0.00 0.00 19 1012.7
20260506234031 82 279 1.7 6.1 0.00 0.00 0.00 19 1012.7
20260506233533 82 277 0.9 7.0 0.00 0.00 0.00 20 1012.7
20260506233046 82 277 2.6 7.0 0.00 0.00 0.00 19 1012.7
20260506232531 83 304 2.6 7.0 0.00 0.00 0.00 21 1012.7
20260506232031 83 281 1.7 7.8 0.00 0.00 0.00 19 1012.8
20260506231544 83 0 0.9 7.8 0.00 0.00 0.00 20 1012.8
20260506231033 82 0 0.0 7.0 0.00 0.00 0.00 22 1012.8
20260506230532 82 0 2.6 7.0 0.00 0.00 0.00 20 1013.0
20260506230047 82 288 0.9 4.3 0.00 0.00 0.00 22 1013.1
20260506225531 81 320 0.0 6.1 0.00 0.00 0.00 24 1013.1
20260506225032 82 289 0.9 7.8 0.00 0.00 0.00 23 1013.2